Location: Unspecified
(0.0000°N, 0.0000°E)
Time: 02:41:21
(UTC+00:00)

CUBERRT - Pass Details

Date: 21 May 2019
Orbit: 370 x 376 km, 51.6° (Epoch: 25 June)

Event Time Altitude Azimuth Distance (km) Brightness Sun altitude
Exits shadow 04:16:16 14° 136° (SE) 1,204 ? -23.5°
Drops below altitude 10° 04:16:45 10° 137° (SE) 1,400 ? -23.3°
Sets 04:18:49 0° 140° (SE) 2,255 ? -22.9°
